Flag for Australia Weather past 2 weeks in Mildura, Victoria, Australia

Now
62 °F

Overcast.


Feels Like: 62 °F
Forecast: 63 / 83 °F
Wind: 10 mph from South

Location: Mildura Airport

Current Time: Mar 4, 2015 at 10:14:04 AM

Latest Report: Mar 4, 2015 at 9:00 AM


Visibility: 19 mi

Pressure: 30.05 "Hg

Humidity: 57%

Dew point: 47 °F

Location of MilduraLocation

Historic Weather in Mildura — Graph

°F

Mildura temperature yesterday

Maximum temperature yesterday: 89 °F (at 5:00 PM)
Minimum temperature yesterday: 68 °F (at 4:00 AM)
Average temperature yesterday: 78 °F

Past Weeks' High & Low Weather Summary

 TemperatureHumidityPressure
High104 °F (Feb 28, 5:00 PM)77% (Mar 1, 8:00 AM)30.08 "Hg (Mar 1, 8:00 AM)
Low55 °F (Feb 25, 7:00 AM)10% (Feb 22, 4:00 PM)29.54 "Hg (Feb 28, 6:00 PM)
Average79 °F35%29.89 "Hg
* Reported Feb 17 8:00 AM — Mar 4 8:00 AM, Mildura, Weather by CustomWeather, © 2015

Note: Actual official high and low records may vary slightly from our data, if they occured in-between our weather recording intervals... More about our weather records

Advertising

Mildura weather history for previous 24 hours

 ConditionsComfort  
Time TempWeatherWind HumidityBarometerVisibility
8:00 AM
Wed, Mar 4
60 °FCool.10 mph60%30.03 "HgN/A
7:00 AM60 °FRefreshingly cool.10 mph58%30.00 "HgN/A
6:00 AM62 °FRefreshingly cool.12 mph52%29.98 "HgN/A
5:00 AM64 °FMild.12 mph49%29.98 "HgN/A
4:00 AM66 °FMild.10 mph46%29.96 "HgN/A
3:00 AM67 °FMild.9 mph41%29.97 "HgN/A
2:00 AM70 °FMild.8 mph31%29.98 "HgN/A
1:00 AM73 °FMild.7 mph27%29.99 "HgN/A
12:00 AM74 °FMild.7 mph29%29.98 "HgN/A
11:00 PM
Tue, Mar 3
77 °FPleasantly warm.8 mph27%29.98 "HgN/A
10:00 PM78 °FPleasantly warm.6 mph25%29.98 "HgN/A
9:00 PM80 °FPleasantly warm.7 mph23%29.95 "HgN/A
8:00 PM85 °FPleasantly warm.9 mph21%29.93 "HgN/A
7:00 PM88 °FPleasantly warm.10 mph19%29.91 "HgN/A
6:00 PM87 °FPleasantly warm.10 mph19%29.92 "HgN/A
5:00 PM89 °FHot.10 mph17%29.91 "HgN/A
4:00 PM88 °FHot.8 mph17%29.93 "HgN/A
3:00 PM88 °FPassing clouds.9 mph17%29.95 "Hg25 mi
2:00 PM86 °FPleasantly warm.9 mph19%29.97 "HgN/A
1:00 PM85 °FPleasantly warm.9 mph19%29.99 "HgN/A
12:00 PM82 °FPleasantly warm.10 mph21%30.01 "HgN/A
11:00 AM78 °FPleasantly warm.7 mph26%30.02 "HgN/A
10:00 AM75 °FMild.8 mph28%30.01 "HgN/A
Weather by CustomWeather, © 2015

See weather overviewHow to use our weather pages